CAPE
nan nan nan 0 0 nan nan nan nan nan nan nan nan nan nan nan nan nan nan 0 0 3 1 0 0 nan nan nan nan nan nan nan nan nan nan nan nan nan nan nan nan nan nan nan nan nan nan nan nan nan nan nan nan nan nan nan nan nan nan nan nan nan nan 0 0 1 2 4 6 6 9 12 14 14 16 17 16 16 16 18 18 20 18 22 22 30
nan nan nan nan nan nan nan 0 nan nan nan nan nan nan nan nan nan nan 0 2 2 4 2 0 0 nan nan nan nan nan nan nan nan nan nan nan nan nan nan nan nan nan nan nan nan nan nan nan nan nan nan nan nan nan nan nan nan nan nan nan nan nan nan 0 0 1 2 5 7 7 10 13 14 14 15 15 15 15 16 17 17 19 19 24 24 30
nan nan nan nan nan nan nan 1 nan nan nan nan nan nan nan nan nan nan nan 2 2 3 3 1 1 0 nan nan nan nan nan nan nan nan nan nan nan nan nan nan nan nan nan nan nan nan nan nan nan nan nan nan nan nan nan nan nan nan nan nan nan nan nan 0 0 1 2 5 8 8 10 13 14 14 14 13 14 14 16 18 18 21 22 25 25 31
0 nan nan nan nan nan nan nan nan nan nan nan nan nan nan nan nan nan nan 2 2 1 3 1 1 nan nan nan nan nan nan nan nan nan nan nan nan nan nan nan nan nan nan nan nan nan nan nan nan nan nan nan nan nan nan nan nan nan nan nan nan nan nan 0 0 0 2 5 7 7 9 10 10 10 11 12 14 14 17 21 21 23 24 26 26 32
0 nan nan nan nan nan nan nan nan nan nan nan nan nan nan nan nan nan nan 0 0 2 2 0 0 nan nan nan 0 0 nan nan nan nan nan nan nan nan nan nan nan nan nan nan nan nan nan nan nan nan nan nan nan nan nan nan nan nan nan nan nan nan nan 0 0 1 2 4 5 5 7 7 9 9 10 11 13 13 16 20 20 23 25 27 27 32
nan nan nan nan nan nan nan nan nan nan nan nan nan nan nan nan nan nan nan nan nan nan nan nan nan nan nan nan nan nan nan nan nan nan nan nan nan nan nan nan nan nan nan nan nan nan nan nan nan nan nan nan nan nan nan nan nan nan nan nan nan nan 0 0 0 1 3 4 5 5 6 6 8 8 9 10 11 11 14 18 18 24 25 28 28 31
0 0 nan nan nan nan nan nan nan nan nan nan nan nan nan nan nan nan nan nan nan nan nan nan nan nan nan nan nan nan nan nan nan nan nan nan nan nan nan nan nan nan nan nan nan nan nan nan nan nan nan nan nan nan nan nan nan nan nan nan nan nan 0 1 1 2 3 4 5 5 5 6 8 8 9 9 9 9 12 16 16 23 26 28 28 31
nan nan nan nan nan nan nan nan nan nan nan nan nan nan nan nan nan nan nan nan nan nan nan nan nan nan nan nan nan nan nan nan nan nan nan nan nan nan nan nan nan nan nan nan nan nan nan nan nan 0 0 nan nan nan nan nan nan nan nan nan nan 0 0 1 1 2 4 4 5 5 5 6 7 7 7 8 9 9 11 14 14 17 21 24 24 26
nan nan nan nan nan nan nan nan nan nan nan nan nan nan nan nan nan nan nan nan nan nan nan nan nan nan nan nan nan nan nan nan nan nan nan nan nan nan nan nan nan nan nan 0 0 0 0 1 1 1 1 0 nan nan nan nan nan nan 0 0 0 0 0 1 1 2 4 5 5 5 5 5 6 6 7 7 8 8 9 11 11 13 16 19 19 23
nan nan nan nan nan nan nan nan nan nan 0 nan nan nan nan nan nan nan nan nan nan nan nan nan nan nan nan nan nan nan nan nan nan nan nan nan nan nan nan nan nan nan 1 1 1 1 2 2 2 1 0 0 nan nan nan nan nan nan 0 0 0 0 1 1 1 2 4 4 5 5 5 5 6 6 7 7 8 8 9 10 10 10 12 14 14 18
nan nan nan nan nan nan nan nan 0 0 0 nan nan nan nan nan nan nan nan nan nan nan nan nan nan nan nan nan nan nan nan nan nan nan nan nan nan nan 0 0 0 1 2 2 2 3 2 1 1 1 nan nan nan nan nan nan nan nan 0 0 0 0 1 1 1 2 4 5 5 5 5 6 6 6 7 7 8 8 9 8 8 8 9 11 11 15
nan nan nan nan nan nan nan nan 0 0 0 nan nan nan nan 0 nan nan nan nan nan nan nan nan nan nan nan nan nan nan nan nan nan nan nan nan nan nan 0 1 1 3 4 4 4 3 3 1 1 0 nan nan nan nan nan nan nan 0 0 0 0 1 1 1 1 3 4 5 5 5 6 6 7 7 8 8 8 8 8 7 7 7 8 9 9 12
nan nan nan nan nan nan nan nan nan nan nan nan nan nan nan 1 0 0 nan nan nan nan nan nan nan nan nan nan nan nan nan nan nan nan nan nan nan nan nan nan nan nan nan nan nan 0 2 0 0 0 nan nan nan nan nan nan nan 0 0 0 0 1 1 2 2 3 4 4 5 5 6 6 7 7 7 7 8 8 7 6 6 6 7 9 9 11
nan nan nan nan nan nan nan nan nan nan nan nan nan nan 0 0 0 0 nan nan nan 0 nan nan nan nan nan nan nan nan nan nan nan nan nan nan nan nan nan nan nan nan nan nan nan nan nan nan nan nan nan nan 0 0 0 0 0 0 0 1 1 1 1 1 1 2 3 4 5 5 6 6 6 6 6 6 6 6 6 5 5 5 7 8 8 10
nan nan nan nan nan nan nan nan 0 0 nan nan nan nan nan nan nan nan nan nan nan 0 nan nan nan nan nan nan nan nan nan nan nan nan nan nan nan nan nan nan nan nan nan nan nan nan nan nan nan nan nan nan 0 0 0 0 0 0 1 1 1 1 1 2 2 2 3 4 5 5 5 5 5 5 5 5 5 5 4 5 5 5 6 8 8 9
nan nan nan nan nan nan nan nan nan nan nan nan nan nan nan nan nan nan nan nan nan 0 nan nan nan nan nan nan nan nan nan nan nan nan nan nan nan nan nan nan nan nan nan nan nan nan nan nan nan nan nan nan nan nan nan 1 1 1 1 1 1 1 1 2 2 2 3 4 4 4 5 5 4 4 4 4 4 4 3 4 4 5 6 7 7 8
nan nan nan nan nan nan nan nan nan nan nan nan nan nan nan nan nan nan nan nan nan 0 nan nan nan nan nan nan nan nan nan nan nan nan nan nan nan nan nan nan nan nan nan nan nan nan nan nan nan nan nan 0 nan nan nan 0 0 1 1 1 1 1 1 2 2 2 3 4 4 4 4 4 4 4 3 3 3 3 3 3 3 5 6 7 7 7
nan 0 0 0 0 0 nan nan nan nan nan nan nan nan nan nan nan nan nan nan nan nan nan nan nan nan nan nan nan nan nan nan nan nan nan nan nan nan nan nan nan nan nan nan nan nan nan nan nan nan 0 0 0 0 0 1 1 1 1 1 1 1 1 2 2 3 3 4 4 4 3 3 2 2 2 2 2 2 3 4 4 5 6 7 7 7
nan 1 0 0 0 nan nan nan nan nan nan nan nan nan nan nan nan nan nan nan nan nan nan nan nan nan nan nan nan nan nan nan nan nan nan nan nan nan nan nan nan nan nan nan nan nan nan nan nan 0 1 0 0 0 1 1 1 1 1 1 1 1 1 2 2 2 3 3 3 3 3 2 2 2 2 2 2 2 3 4 4 5 6 6 6 5
nan nan nan nan nan nan 0 0 0 0 nan nan nan nan nan nan nan nan nan nan nan nan nan nan nan nan nan nan nan nan nan nan nan nan nan nan nan nan nan nan nan nan nan nan nan nan nan nan nan 0 1 0 0 0 1 1 1 1 1 1 1 1 1 1 1 1 2 3 2 2 2 1 1 1 1 2 2 2 4 5 5 5 5 4 4 4
nan nan nan nan nan nan nan 0 0 0 0 nan nan nan nan nan nan nan nan nan nan nan nan nan nan nan nan nan nan nan nan nan nan nan nan nan nan nan nan nan nan nan nan nan nan nan nan nan nan nan 1 1 1 1 1 1 1 1 0 0 0 0 0 1 1 1 1 1 2 2 1 1 1 1 1 2 3 3 3 4 4 4 4 3 3 1
nan nan nan nan nan nan 0 0 3 3 1 nan nan nan nan nan nan nan nan nan nan nan nan nan nan nan nan nan nan nan nan nan nan nan nan nan nan nan nan nan nan nan nan nan nan nan nan nan nan nan 3 2 1 1 1 0 0 0 0 0 0 1 1 1 1 1 1 1 1 1 1 1 1 1 1 2 3 3 3 3 3 3 2 1 1 0
nan nan nan nan nan nan nan nan 1 1 1 nan nan nan nan nan nan nan nan nan nan nan nan nan nan nan nan nan nan nan nan nan nan nan nan nan nan nan nan nan nan nan nan nan nan nan nan nan nan nan 1 2 1 1 0 0 0 0 0 0 0 1 1 1 1 1 1 1 1 1 1 1 1 1 1 1 2 2 2 2 2 2 1 1 1 0
nan nan nan nan nan nan nan nan nan nan nan nan nan nan nan nan nan nan nan nan nan nan nan nan nan nan nan nan nan nan nan nan nan nan nan nan nan nan nan nan nan nan nan nan nan nan nan nan nan nan nan nan nan nan nan nan nan nan nan 0 0 0 1 1 1 1 1 1 0 0 0 0 0 0 0 1 1 1 1 1 1 1 1 0 0 nan
nan nan nan nan nan nan nan nan nan nan nan nan nan nan nan nan nan nan nan nan nan nan nan nan nan nan nan nan nan nan nan nan nan nan nan nan nan nan nan nan nan nan nan nan nan nan nan nan nan nan nan nan nan nan nan nan nan nan nan nan nan 0 0 0 0 0 0 0 0 0 nan nan nan nan 0 0 0 0 0 1 1 1 0 nan nan nan
nan nan nan 1 1 2 2 3 3 3 0 nan nan nan nan nan nan nan nan nan nan nan nan nan nan nan nan nan nan nan nan nan nan nan nan nan nan nan nan nan nan nan nan nan nan nan nan nan nan nan nan nan nan nan nan nan nan nan nan nan nan 0 0 0 0 0 0 nan nan nan nan nan nan nan nan nan 0 0 0 0 0 0 0 nan nan nan
1 2 2 3 3 3 3 5 7 7 5 1 nan nan nan nan nan nan nan nan nan nan nan nan nan nan nan nan nan nan nan nan nan nan nan nan nan nan nan nan nan nan nan nan nan nan nan nan nan nan nan nan nan nan nan nan nan nan nan nan nan nan 0 0 0 nan nan nan nan nan nan nan nan nan nan nan nan nan 0 0 0 0 0 nan nan nan
3 3 3 3 3 4 3 5 7 7 5 3 2 2 nan nan nan nan nan nan nan nan nan nan nan nan nan nan nan nan nan nan nan nan nan nan nan nan nan nan nan nan nan nan nan nan nan nan nan nan nan nan nan nan nan nan nan nan nan nan nan nan nan nan nan nan nan nan nan nan nan nan nan nan nan nan nan nan nan 0 0 0 nan nan nan nan
1 2 3 4 4 4 5 6 6 6 5 4 2 2 nan nan nan nan nan nan nan nan nan nan nan nan nan nan nan nan nan nan nan nan nan nan nan nan nan nan nan nan nan nan nan nan nan nan nan nan nan nan nan nan nan nan nan nan nan nan nan nan nan nan nan nan nan nan nan nan nan nan nan nan nan nan nan nan nan 0 0 0 nan nan nan nan
nan nan 1 3 3 3 5 5 6 6 5 5 3 3 nan nan nan nan nan nan nan nan nan nan nan nan nan nan nan nan nan nan nan nan nan nan nan nan nan nan nan nan nan nan nan nan nan nan nan nan nan nan nan nan nan nan nan nan nan nan nan nan nan nan nan nan nan nan nan nan nan nan nan nan nan nan nan nan nan 0 0 0 nan nan nan nan
0 0 0 2 2 2 2 1 4 4 7 6 4 4 0 nan nan nan nan nan nan nan nan nan nan nan nan nan nan nan nan nan nan nan nan nan nan nan nan nan nan nan nan nan nan nan nan nan nan nan nan nan nan nan nan nan nan nan nan nan nan nan nan nan nan nan nan nan nan nan nan nan nan nan nan nan nan nan nan 0 0 0 nan nan nan nan
nan nan nan nan nan nan nan nan 0 0 1 2 2 2 0 nan nan nan nan nan nan nan nan nan nan nan nan nan nan nan nan nan nan nan nan nan nan nan nan nan nan nan nan nan nan nan nan nan nan nan nan nan nan nan nan nan nan nan nan nan nan nan nan nan nan nan nan nan nan nan nan nan nan nan nan nan nan nan nan nan nan 0 nan nan nan nan
nan nan nan nan nan nan nan nan 0 0 0 0 1 1 nan nan nan nan nan nan nan nan nan nan nan nan nan nan nan nan nan nan nan nan nan nan nan nan nan nan nan nan nan nan nan nan nan nan nan nan nan nan nan nan nan nan nan nan nan nan nan nan nan nan nan nan nan nan nan nan nan nan nan nan nan nan nan nan nan nan nan nan nan nan nan nan
nan nan nan nan nan nan nan nan nan nan nan nan nan nan nan nan nan nan nan nan nan nan nan nan nan nan nan nan nan nan nan nan nan nan nan nan nan nan nan nan nan nan nan nan nan nan nan nan nan nan nan nan nan nan nan nan nan nan nan nan nan nan nan nan nan nan nan nan nan nan nan nan nan nan nan nan nan nan nan nan nan nan nan nan nan nan
nan nan nan nan nan nan nan nan nan nan nan nan nan nan nan nan nan nan nan nan nan nan nan nan nan nan nan nan nan nan nan nan 0 0 nan nan nan nan nan nan nan nan nan nan nan nan nan nan nan nan nan nan nan nan nan nan nan nan nan nan nan nan nan nan nan nan nan nan nan nan nan nan nan nan nan nan nan nan nan nan nan nan nan nan nan nan
nan nan nan nan nan nan nan nan nan nan nan nan nan nan nan nan nan nan nan nan nan nan nan nan nan nan nan nan nan nan nan nan 0 0 nan nan nan nan nan nan nan nan nan nan nan nan nan nan nan nan nan nan nan nan nan nan nan nan nan nan nan nan nan nan nan nan nan nan nan nan nan nan nan nan nan nan nan nan nan nan nan nan nan nan nan nan
nan nan nan nan nan nan nan nan nan nan nan nan nan nan nan nan nan nan nan nan nan nan nan nan nan nan nan nan nan nan nan nan nan nan nan nan nan nan nan nan nan nan nan nan nan nan nan nan nan nan nan nan nan nan nan nan nan nan nan nan nan nan nan nan nan nan nan nan nan nan nan nan nan nan nan nan nan nan nan nan nan nan nan nan nan nan
nan nan nan nan nan nan nan nan nan nan nan nan nan nan nan nan nan nan nan nan nan nan nan nan nan nan 1 0 nan nan 0 0 nan nan nan nan nan nan nan nan nan nan nan nan nan nan nan nan nan nan nan nan nan nan nan nan nan nan nan nan nan nan nan nan nan nan nan nan nan nan nan nan nan nan nan nan nan nan nan nan nan nan nan nan nan nan
nan nan nan nan nan nan nan nan nan nan nan nan nan nan nan nan nan nan nan nan nan nan nan nan nan nan nan 0 1 1 nan nan nan nan nan nan nan nan nan nan nan nan nan nan nan nan nan nan nan nan nan nan nan nan nan nan nan nan nan nan nan nan nan nan nan nan nan nan nan nan nan nan nan nan nan nan nan nan nan nan nan nan nan nan nan nan
nan nan nan nan nan nan nan nan nan nan nan nan 0 0 nan nan nan nan nan nan nan nan nan nan nan nan nan nan nan nan nan nan nan nan nan nan nan nan nan nan nan nan nan nan nan nan nan nan nan nan nan nan nan nan nan nan nan nan nan nan nan nan nan nan nan nan nan nan nan nan nan nan nan nan nan nan nan nan nan nan nan nan nan nan nan nan
nan nan nan nan nan 0 0 0 nan nan nan nan nan nan nan nan nan nan nan nan nan nan nan nan nan nan nan nan nan nan nan nan nan nan nan nan nan nan nan nan nan nan nan nan nan nan nan nan nan nan nan nan nan nan nan nan nan nan nan nan nan nan nan nan nan nan nan nan nan nan nan nan nan nan nan nan nan nan nan nan nan nan nan nan nan nan
nan nan nan nan nan nan 0 0 0 0 nan nan nan nan nan nan nan nan nan nan nan nan nan nan nan nan nan nan nan nan nan nan nan nan nan nan nan nan nan nan nan nan nan nan nan nan nan nan nan nan nan nan nan nan nan nan nan nan nan nan nan nan nan nan nan nan nan nan nan nan nan nan nan nan nan nan nan nan nan nan nan nan nan nan nan nan
nan nan nan nan nan nan 0 1 0 0 nan nan nan nan nan nan nan nan nan nan nan nan nan nan nan nan nan nan nan nan nan nan nan nan nan nan nan nan nan nan nan nan nan nan nan nan nan nan nan nan nan nan nan nan nan nan nan nan nan nan nan nan nan nan nan nan nan nan nan nan nan nan nan nan nan nan nan nan nan nan nan nan nan nan nan nan
nan nan nan nan nan nan 0 nan nan nan nan nan nan nan nan nan nan nan nan nan nan nan nan nan nan nan nan nan nan nan nan nan nan nan nan nan nan nan nan nan nan nan nan nan nan nan nan nan nan nan nan nan nan nan nan nan nan nan nan nan nan nan nan nan nan nan nan nan nan nan nan nan nan nan nan nan nan nan nan nan nan nan nan nan nan nan
nan nan nan nan nan nan nan nan nan nan nan nan nan nan nan nan nan nan nan nan nan nan nan nan nan nan nan nan nan nan nan nan nan nan nan nan nan nan nan nan nan nan nan nan nan nan nan nan nan nan nan nan nan nan nan nan nan nan nan nan nan nan nan nan nan nan nan nan nan nan nan nan nan nan nan nan nan nan nan nan nan nan nan nan nan nan
nan nan nan nan nan nan nan nan nan nan nan nan nan nan nan nan nan nan nan nan nan nan nan nan nan nan nan nan nan nan nan nan nan nan nan nan nan nan nan nan nan nan nan nan nan nan nan nan nan nan nan nan nan nan nan nan nan nan nan nan nan nan nan nan nan nan nan nan nan nan nan nan nan nan nan nan nan nan nan nan nan nan nan nan nan nan
nan nan nan nan nan nan nan nan nan nan nan nan nan nan nan nan nan nan nan nan nan nan nan nan nan nan nan nan nan nan nan nan nan nan nan nan nan nan nan nan nan nan nan nan nan nan nan nan nan nan nan nan nan nan nan nan nan nan nan nan nan nan nan nan nan nan nan nan nan nan nan nan nan nan nan nan nan nan nan nan nan nan nan nan nan nan
nan nan nan nan nan nan nan nan nan nan nan nan nan nan nan nan nan nan nan nan nan nan nan nan nan nan nan nan nan nan nan nan nan nan nan nan nan nan nan nan nan nan nan nan nan nan nan nan nan nan nan nan nan nan nan nan nan nan nan nan nan nan nan nan nan nan nan nan nan nan nan nan nan nan nan nan nan nan nan nan nan nan nan nan nan nan
nan nan nan nan nan nan nan nan nan nan nan nan nan nan nan 1 2 2 nan nan nan nan nan nan nan nan nan nan nan nan nan nan nan nan nan nan nan nan nan nan nan nan nan nan nan nan nan nan nan nan nan nan nan nan nan nan nan nan nan nan nan nan nan nan nan nan nan nan nan nan nan nan nan nan nan nan nan nan nan nan nan nan nan nan nan nan
nan nan nan nan nan nan nan nan nan nan nan nan nan nan nan 0 0 0 nan nan nan nan nan nan nan nan nan nan nan nan nan nan nan nan nan nan nan nan nan nan nan nan nan nan nan nan nan nan nan 1 0 nan nan nan nan nan nan nan nan nan nan nan nan nan nan nan nan nan nan nan nan nan nan nan nan nan nan nan nan nan nan nan nan nan nan nan
0 nan nan nan nan nan nan nan nan nan nan nan nan nan nan nan nan nan nan nan nan nan nan nan nan nan nan nan nan nan nan nan nan nan nan nan nan nan nan nan nan nan nan nan nan nan nan nan nan nan nan 2 nan nan nan nan nan nan nan nan nan nan nan nan nan nan nan nan nan nan nan nan nan nan nan nan nan nan nan nan nan nan nan nan nan nan
CIN
nan nan nan -0 -0 nan nan nan nan nan nan nan nan nan nan nan nan nan nan -2 -2 -1 -0 -0 -0 nan nan nan nan nan nan nan nan nan nan nan nan nan nan nan nan nan nan nan nan nan nan nan nan nan nan nan nan nan nan nan nan nan nan nan nan nan nan -0 -0 -0 -0 -0 -0 -0 -0 -0 -0 -0 -0 -0 -0 -0 -0 -0 -0 -0 -0 -0 -0 -0
nan nan nan nan nan nan nan -0 nan nan nan nan nan nan nan nan nan nan -1 -1 -1 -1 -0 -0 -0 nan nan nan nan nan nan nan nan nan nan nan nan nan nan nan nan nan nan nan nan nan nan nan nan nan nan nan nan nan nan nan nan nan nan nan nan nan nan -0 -0 -0 -0 -0 -0 -0 -0 -0 -0 -0 -0 -0 -0 -0 -0 -0 -0 -0 -0 -0 -0 -0
nan nan nan nan nan nan nan -0 nan nan nan nan nan nan nan nan nan nan nan -1 -1 -0 -0 -0 -0 -0 nan nan nan nan nan nan nan nan nan nan nan nan nan nan nan nan nan nan nan nan nan nan nan nan nan nan nan nan nan nan nan nan nan nan nan nan nan -0 -0 -0 -0 -0 -0 -0 -0 -0 -0 -0 -0 -0 -0 -0 -0 -0 -0 -0 -0 -0 -0 -0
-0 nan nan nan nan nan nan nan nan nan nan nan nan nan nan nan nan nan nan -1 -1 -0 -0 -0 -0 nan nan nan nan nan nan nan nan nan nan nan nan nan nan nan nan nan nan nan nan nan nan nan nan nan nan nan nan nan nan nan nan nan nan nan nan nan nan -0 -0 -0 -0 -0 -0 -0 -0 -0 -0 -0 -0 -0 -0 -0 -0 -0 -0 -0 -0 -0 -0 -0
-0 nan nan nan nan nan nan nan nan nan nan nan nan nan nan nan nan nan nan -1 -1 -0 -0 -0 -0 nan nan nan -0 -0 nan nan nan nan nan nan nan nan nan nan nan nan nan nan nan nan nan nan nan nan nan nan nan nan nan nan nan nan nan nan nan nan nan -0 -0 -0 -0 -0 -0 -0 -0 -0 -0 -0 -0 -0 -0 -0 -0 -0 -0 -0 -0 -0 -0 -0
nan nan nan nan nan nan nan nan nan nan nan nan nan nan nan nan nan nan nan nan nan nan nan nan nan nan nan nan nan nan nan nan nan nan nan nan nan nan nan nan nan nan nan nan nan nan nan nan nan nan nan nan nan nan nan nan nan nan nan nan nan nan -0 -0 -0 -0 -0 -0 -0 -0 -0 -0 -0 -0 -0 -0 -0 -0 -0 -0 -0 -0 -0 -0 -0 -0
-0 -0 nan nan nan nan nan nan nan nan nan nan nan nan nan nan nan nan nan nan nan nan nan nan nan nan nan nan nan nan nan nan nan nan nan nan nan nan nan nan nan nan nan nan nan nan nan nan nan nan nan nan nan nan nan nan nan nan nan nan nan nan -0 -0 -0 -0 -0 -0 -0 -0 -0 -0 -0 -0 -0 -0 -0 -0 -0 -0 -0 -0 -0 -0 -0 -0
nan nan nan nan nan nan nan nan nan nan nan nan nan nan nan nan nan nan nan nan nan nan nan nan nan nan nan nan nan nan nan nan nan nan nan nan nan nan nan nan nan nan nan nan nan nan nan nan nan -0 -0 nan nan nan nan nan nan nan nan nan nan -0 -0 -0 -0 -0 -0 -0 -0 -0 -0 -0 -0 -0 -0 -0 -0 -0 -0 -0 -0 -0 -0 -0 -0 -0
nan nan nan nan nan nan nan nan nan nan nan nan nan nan nan nan nan nan nan nan nan nan nan nan nan nan nan nan nan nan nan nan nan nan nan nan nan nan nan nan nan nan nan -0 -0 -0 -0 -0 -0 -0 -0 -0 nan nan nan nan nan nan -0 -0 -0 -0 -0 -0 -0 -0 -0 -0 -0 -0 -0 -0 -0 -0 -0 -0 -0 -0 -0 -0 -0 -0 -0 -0 -0 -0
nan nan nan nan nan nan nan nan nan nan -0 nan nan nan nan nan nan nan nan nan nan nan nan nan nan nan nan nan nan nan nan nan nan nan nan nan nan nan nan nan nan nan -0 -0 -0 -0 -0 -0 -0 -0 -0 -0 nan nan nan nan nan nan -0 -0 -0 -0 -0 -0 -0 -0 -0 -0 -0 -0 -0 -0 -0 -0 -0 -0 -0 -0 -0 -0 -0 -0 -0 -0 -0 -0
nan nan nan nan nan nan nan nan -1 -1 -1 nan nan nan nan nan nan nan nan nan nan nan nan nan nan nan nan nan nan nan nan nan nan nan nan nan nan nan -0 -0 -0 -0 -0 -0 -0 -0 -0 -0 -0 -0 nan nan nan nan nan nan nan nan -0 -0 -0 -0 -0 -0 -0 -0 -0 -0 -0 -0 -0 -0 -0 -0 -0 -0 -0 -0 -0 -0 -0 -0 -0 -0 -0 -0
nan nan nan nan nan nan nan nan -1 -1 -1 nan nan nan nan -1 nan nan nan nan nan nan nan nan nan nan nan nan nan nan nan nan nan nan nan nan nan nan -0 -0 -0 -0 -0 -0 -0 -0 -0 -0 -0 -0 nan nan nan nan nan nan nan -0 -0 -0 -0 -0 -0 -0 -0 -0 -0 -0 -0 -0 -0 -0 -0 -0 -0 -0 -0 -0 -0 -0 -0 -0 -0 -0 -0 -0
nan nan nan nan nan nan nan nan nan nan nan nan nan nan nan -0 -1 -1 nan nan nan nan nan nan nan nan nan nan nan nan nan nan nan nan nan nan nan nan nan nan nan nan nan nan nan -0 -0 -0 -0 -0 nan nan nan nan nan nan nan -0 -0 -0 -0 -0 -0 -0 -0 -0 -0 -0 -0 -0 -0 -0 -0 -0 -0 -0 -0 -0 -0 -0 -0 -0 -0 -0 -0 -0
nan nan nan nan nan nan nan nan nan nan nan nan nan nan -1 -1 -1 -1 nan nan nan -1 nan nan nan nan nan nan nan nan nan nan nan nan nan nan nan nan nan nan nan nan nan nan nan nan nan nan nan nan nan nan -0 -0 -0 -0 -0 -0 -0 -0 -0 -0 -0 -0 -0 -0 -0 -0 -0 -0 -0 -0 -0 -0 -0 -0 -0 -0 -0 -0 -0 -0 -0 -0 -0 -0
nan nan nan nan nan nan nan nan -1 -1 nan nan nan nan nan nan nan nan nan nan nan -1 nan nan nan nan nan nan nan nan nan nan nan nan nan nan nan nan nan nan nan nan nan nan nan nan nan nan nan nan nan nan -0 -0 -0 -0 -0 -0 -0 -0 -0 -0 -0 -0 -0 -0 -0 -0 -0 -0 -0 -0 -0 -0 -0 -0 -0 -0 -0 -0 -0 -0 -0 -0 -0 -0
nan nan nan nan nan nan nan nan nan nan nan nan nan nan nan nan nan nan nan nan nan -1 nan nan nan nan nan nan nan nan nan nan nan nan nan nan nan nan nan nan nan nan nan nan nan nan nan nan nan nan nan nan nan nan nan -0 -0 -0 -0 -0 -0 -0 -0 -0 -0 -0 -0 -0 -0 -0 -0 -0 -0 -0 -0 -0 -0 -0 -0 -0 -0 -0 -0 -0 -0 -0
nan nan nan nan nan nan nan nan nan nan nan nan nan nan nan nan nan nan nan nan nan -0 nan nan nan nan nan nan nan nan nan nan nan nan nan nan nan nan nan nan nan nan nan nan nan nan nan nan nan nan nan -0 nan nan nan -0 -0 -0 -0 -0 -0 -0 -0 -0 -0 -0 -0 -0 -0 -0 -0 -0 -0 -0 -0 -0 -0 -0 -0 -0 -0 -0 -0 -0 -0 -0
nan -1 -1 -1 -1 -1 nan nan nan nan nan nan nan nan nan nan nan nan nan nan nan nan nan nan nan nan nan nan nan nan nan nan nan nan nan nan nan nan nan nan nan nan nan nan nan nan nan nan nan nan -0 -0 -0 -0 -0 -0 -0 -0 -0 -0 -0 -0 -0 -0 -0 -0 -0 -0 -0 -0 -0 -0 -0 -0 -0 -0 -0 -0 -0 -0 -0 -0 -0 -0 -0 -0
nan -1 -1 -1 -1 nan nan nan nan nan nan nan nan nan nan nan nan nan nan nan nan nan nan nan nan nan nan nan nan nan nan nan nan nan nan nan nan nan nan nan nan nan nan nan nan nan nan nan nan -0 -0 -0 -0 -0 -0 -0 -0 -0 -0 -0 -0 -0 -0 -0 -0 -0 -0 -0 -0 -0 -0 -0 -0 -0 -0 -0 -0 -0 -0 -0 -0 -0 -0 -0 -0 -0
nan nan nan nan nan nan -1 -1 -2 -2 nan nan nan nan nan nan nan nan nan nan nan nan nan nan nan nan nan nan nan nan nan nan nan nan nan nan nan nan nan nan nan nan nan nan nan nan nan nan nan -0 -0 -0 -0 -0 -0 -0 -0 -0 -0 -0 -0 -0 -0 -0 -0 -0 -0 -0 -0 -0 -0 -0 -0 -0 -0 -0 -0 -0 -0 -0 -0 -0 -0 -0 -0 -0
nan nan nan nan nan nan nan -2 -2 -2 -2 nan nan nan nan nan nan nan nan nan nan nan nan nan nan nan nan nan nan nan nan nan nan nan nan nan nan nan nan nan nan nan nan nan nan nan nan nan nan nan -0 -0 -0 -0 -0 -0 -0 -0 -0 -0 -0 -0 -0 -0 -0 -0 -0 -0 -0 -0 -0 -0 -0 -0 -0 -0 -0 -0 -0 -0 -0 -0 -0 -0 -0 -0
nan nan nan nan nan nan -3 -2 -1 -1 -2 nan nan nan nan nan nan nan nan nan nan nan nan nan nan nan nan nan nan nan nan nan nan nan nan nan nan nan nan nan nan nan nan nan nan nan nan nan nan nan -0 -0 -0 -0 -0 -0 -0 -0 -0 -0 -0 -0 -0 -0 -0 -0 -0 -0 -0 -0 -0 -0 -0 -0 -0 -0 -0 -0 -0 -0 -0 -0 -0 -0 -0 -0
nan nan nan nan nan nan nan nan -1 -1 -2 nan nan nan nan nan nan nan nan nan nan nan nan nan nan nan nan nan nan nan nan nan nan nan nan nan nan nan nan nan nan nan nan nan nan nan nan nan nan nan -0 -0 -0 -0 -0 -0 -0 -0 -0 -0 -0 -0 -0 -0 -0 -0 -0 -0 -0 -0 -0 -0 -0 -0 -0 -0 -0 -0 -0 -0 -0 -0 -0 -0 -0 -0
nan nan nan nan nan nan nan nan nan nan nan nan nan nan nan nan nan nan nan nan nan nan nan nan nan nan nan nan nan nan nan nan nan nan nan nan nan nan nan nan nan nan nan nan nan nan nan nan nan nan nan nan nan nan nan nan nan nan nan -0 -0 -0 -0 -0 -0 -0 -0 -0 -0 -0 -0 -0 -0 -0 -0 -0 -0 -0 -0 -0 -0 -0 -0 -0 -0 nan
nan nan nan nan nan nan nan nan nan nan nan nan nan nan nan nan nan nan nan nan nan nan nan nan nan nan nan nan nan nan nan nan nan nan nan nan nan nan nan nan nan nan nan nan nan nan nan nan nan nan nan nan nan nan nan nan nan nan nan nan nan -0 -0 -0 -0 -0 -0 -0 -0 -0 nan nan nan nan -0 -0 -0 -0 -0 -0 -0 -0 -0 nan nan nan
nan nan nan -1 -1 -0 -0 -0 -0 -0 -0 nan nan nan nan nan nan nan nan nan nan nan nan nan nan nan nan nan nan nan nan nan nan nan nan nan nan nan nan nan nan nan nan nan nan nan nan nan nan nan nan nan nan nan nan nan nan nan nan nan nan -0 -0 -0 -0 -0 -0 nan nan nan nan nan nan nan nan nan -0 -0 -0 -0 -0 -0 -0 nan nan nan
-0 -0 -0 -0 -0 -0 -0 -0 -0 -0 -0 -0 nan nan nan nan nan nan nan nan nan nan nan nan nan nan nan nan nan nan nan nan nan nan nan nan nan nan nan nan nan nan nan nan nan nan nan nan nan nan nan nan nan nan nan nan nan nan nan nan nan nan -0 -0 -0 nan nan nan nan nan nan nan nan nan nan nan nan nan -0 -0 -0 -0 -0 nan nan nan
-0 -0 -0 -0 -0 -0 -0 -0 -0 -0 -0 -0 -0 -0 nan nan nan nan nan nan nan nan nan nan nan nan nan nan nan nan nan nan nan nan nan nan nan nan nan nan nan nan nan nan nan nan nan nan nan nan nan nan nan nan nan nan nan nan nan nan nan nan nan nan nan nan nan nan nan nan nan nan nan nan nan nan nan nan nan -0 -0 -0 nan nan nan nan
-0 -0 -0 -0 -0 -0 -0 -0 -0 -0 -0 -0 -0 -0 nan nan nan nan nan nan nan nan nan nan nan nan nan nan nan nan nan nan nan nan nan nan nan nan nan nan nan nan nan nan nan nan nan nan nan nan nan nan nan nan nan nan nan nan nan nan nan nan nan nan nan nan nan nan nan nan nan nan nan nan nan nan nan nan nan -0 -0 -0 nan nan nan nan
nan nan -0 -0 -0 -0 -0 -0 -0 -0 -0 -0 -0 -0 nan nan nan nan nan nan nan nan nan nan nan nan nan nan nan nan nan nan nan nan nan nan nan nan nan nan nan nan nan nan nan nan nan nan nan nan nan nan nan nan nan nan nan nan nan nan nan nan nan nan nan nan nan nan nan nan nan nan nan nan nan nan nan nan nan -0 -0 -0 nan nan nan nan
-0 -0 -0 -0 -0 -0 -0 -0 -0 -0 -0 -0 -0 -0 -0 nan nan nan nan nan nan nan nan nan nan nan nan nan nan nan nan nan nan nan nan nan nan nan nan nan nan nan nan nan nan nan nan nan nan nan nan nan nan nan nan nan nan nan nan nan nan nan nan nan nan nan nan nan nan nan nan nan nan nan nan nan nan nan nan -0 -0 -0 nan nan nan nan
nan nan nan nan nan nan nan nan -1 -1 -1 -1 -1 -1 -0 nan nan nan nan nan nan nan nan nan nan nan nan nan nan nan nan nan nan nan nan nan nan nan nan nan nan nan nan nan nan nan nan nan nan nan nan nan nan nan nan nan nan nan nan nan nan nan nan nan nan nan nan nan nan nan nan nan nan nan nan nan nan nan nan nan nan -0 nan nan nan nan
nan nan nan nan nan nan nan nan -1 -1 -1 -1 -0 -0 nan nan nan nan nan nan nan nan nan nan nan nan nan nan nan nan nan nan nan nan nan nan nan nan nan nan nan nan nan nan nan nan nan nan nan nan nan nan nan nan nan nan nan nan nan nan nan nan nan nan nan nan nan nan nan nan nan nan nan nan nan nan nan nan nan nan nan nan nan nan nan nan
nan nan nan nan nan nan nan nan nan nan nan nan nan nan nan nan nan nan nan nan nan nan nan nan nan nan nan nan nan nan nan nan nan nan nan nan nan nan nan nan nan nan nan nan nan nan nan nan nan nan nan nan nan nan nan nan nan nan nan nan nan nan nan nan nan nan nan nan nan nan nan nan nan nan nan nan nan nan nan nan nan nan nan nan nan nan
nan nan nan nan nan nan nan nan nan nan nan nan nan nan nan nan nan nan nan nan nan nan nan nan nan nan nan nan nan nan nan nan -0 -0 nan nan nan nan nan nan nan nan nan nan nan nan nan nan nan nan nan nan nan nan nan nan nan nan nan nan nan nan nan nan nan nan nan nan nan nan nan nan nan nan nan nan nan nan nan nan nan nan nan nan nan nan
nan nan nan nan nan nan nan nan nan nan nan nan nan nan nan nan nan nan nan nan nan nan nan nan nan nan nan nan nan nan nan nan -2 -2 nan nan nan nan nan nan nan nan nan nan nan nan nan nan nan nan nan nan nan nan nan nan nan nan nan nan nan nan nan nan nan nan nan nan nan nan nan nan nan nan nan nan nan nan nan nan nan nan nan nan nan nan
nan nan nan nan nan nan nan nan nan nan nan nan nan nan nan nan nan nan nan nan nan nan nan nan nan nan nan nan nan nan nan nan nan nan nan nan nan nan nan nan nan nan nan nan nan nan nan nan nan nan nan nan nan nan nan nan nan nan nan nan nan nan nan nan nan nan nan nan nan nan nan nan nan nan nan nan nan nan nan nan nan nan nan nan nan nan
nan nan nan nan nan nan nan nan nan nan nan nan nan nan nan nan nan nan nan nan nan nan nan nan nan nan -0 -0 nan nan -1 -1 nan nan nan nan nan nan nan nan nan nan nan nan nan nan nan nan nan nan nan nan nan nan nan nan nan nan nan nan nan nan nan nan nan nan nan nan nan nan nan nan nan nan nan nan nan nan nan nan nan nan nan nan nan nan
nan nan nan nan nan nan nan nan nan nan nan nan nan nan nan nan nan nan nan nan nan nan nan nan nan nan nan -0 -0 -0 nan nan nan nan nan nan nan nan nan nan nan nan nan nan nan nan nan nan nan nan nan nan nan nan nan nan nan nan nan nan nan nan nan nan nan nan nan nan nan nan nan nan nan nan nan nan nan nan nan nan nan nan nan nan nan nan
nan nan nan nan nan nan nan nan nan nan nan nan -0 -0 nan nan nan nan nan nan nan nan nan nan nan nan nan nan nan nan nan nan nan nan nan nan nan nan nan nan nan nan nan nan nan nan nan nan nan nan nan nan nan nan nan nan nan nan nan nan nan nan nan nan nan nan nan nan nan nan nan nan nan nan nan nan nan nan nan nan nan nan nan nan nan nan
nan nan nan nan nan -0 -0 -0 nan nan nan nan nan nan nan nan nan nan nan nan nan nan nan nan nan nan nan nan nan nan nan nan nan nan nan nan nan nan nan nan nan nan nan nan nan nan nan nan nan nan nan nan nan nan nan nan nan nan nan nan nan nan nan nan nan nan nan nan nan nan nan nan nan nan nan nan nan nan nan nan nan nan nan nan nan nan
nan nan nan nan nan nan -0 -0 -0 -0 nan nan nan nan nan nan nan nan nan nan nan nan nan nan nan nan nan nan nan nan nan nan nan nan nan nan nan nan nan nan nan nan nan nan nan nan nan nan nan nan nan nan nan nan nan nan nan nan nan nan nan nan nan nan nan nan nan nan nan nan nan nan nan nan nan nan nan nan nan nan nan nan nan nan nan nan
nan nan nan nan nan nan -0 -0 -0 -0 nan nan nan nan nan nan nan nan nan nan nan nan nan nan nan nan nan nan nan nan nan nan nan nan nan nan nan nan nan nan nan nan nan nan nan nan nan nan nan nan nan nan nan nan nan nan nan nan nan nan nan nan nan nan nan nan nan nan nan nan nan nan nan nan nan nan nan nan nan nan nan nan nan nan nan nan
nan nan nan nan nan nan -0 nan nan nan nan nan nan nan nan nan nan nan nan nan nan nan nan nan nan nan nan nan nan nan nan nan nan nan nan nan nan nan nan nan nan nan nan nan nan nan nan nan nan nan nan nan nan nan nan nan nan nan nan nan nan nan nan nan nan nan nan nan nan nan nan nan nan nan nan nan nan nan nan nan nan nan nan nan nan nan
nan nan nan nan nan nan nan nan nan nan nan nan nan nan nan nan nan nan nan nan nan nan nan nan nan nan nan nan nan nan nan nan nan nan nan nan nan nan nan nan nan nan nan nan nan nan nan nan nan nan nan nan nan nan nan nan nan nan nan nan nan nan nan nan nan nan nan nan nan nan nan nan nan nan nan nan nan nan nan nan nan nan nan nan nan nan
nan nan nan nan nan nan nan nan nan nan nan nan nan nan nan nan nan nan nan nan nan nan nan nan nan nan nan nan nan nan nan nan nan nan nan nan nan nan nan nan nan nan nan nan nan nan nan nan nan nan nan nan nan nan nan nan nan nan nan nan nan nan nan nan nan nan nan nan nan nan nan nan nan nan nan nan nan nan nan nan nan nan nan nan nan nan
nan nan nan nan nan nan nan nan nan nan nan nan nan nan nan nan nan nan nan nan nan nan nan nan nan nan nan nan nan nan nan nan nan nan nan nan nan nan nan nan nan nan nan nan nan nan nan nan nan nan nan nan nan nan nan nan nan nan nan nan nan nan nan nan nan nan nan nan nan nan nan nan nan nan nan nan nan nan nan nan nan nan nan nan nan nan
nan nan nan nan nan nan nan nan nan nan nan nan nan nan nan nan nan nan nan nan nan nan nan nan nan nan nan nan nan nan nan nan nan nan nan nan nan nan nan nan nan nan nan nan nan nan nan nan nan nan nan nan nan nan nan nan nan nan nan nan nan nan nan nan nan nan nan nan nan nan nan nan nan nan nan nan nan nan nan nan nan nan nan nan nan nan
nan nan nan nan nan nan nan nan nan nan nan nan nan nan nan -0 -0 -0 nan nan nan nan nan nan nan nan nan nan nan nan nan nan nan nan nan nan nan nan nan nan nan nan nan nan nan nan nan nan nan nan nan nan nan nan nan nan nan nan nan nan nan nan nan nan nan nan nan nan nan nan nan nan nan nan nan nan nan nan nan nan nan nan nan nan nan nan
nan nan nan nan nan nan nan nan nan nan nan nan nan nan nan -1 -1 -1 nan nan nan nan nan nan nan nan nan nan nan nan nan nan nan nan nan nan nan nan nan nan nan nan nan nan nan nan nan nan nan -0 -0 nan nan nan nan nan nan nan nan nan nan nan nan nan nan nan nan nan nan nan nan nan nan nan nan nan nan nan nan nan nan nan nan nan nan nan
-0 nan nan nan nan nan nan nan nan nan nan nan nan nan nan nan nan nan nan nan nan nan nan nan nan nan nan nan nan nan nan nan nan nan nan nan nan nan nan nan nan nan nan nan nan nan nan nan nan nan nan -0 nan nan nan nan nan nan nan nan nan nan nan nan nan nan nan nan nan nan nan nan nan nan nan nan nan nan nan nan nan nan nan nan nan nan
Wind_Speed
2 2 2 4 4 4 3 5 6 7 7 7 6 6 6 7 9 10 12 11 9 9 9 11 12 14 15 17 19 20 20 19 19 19 19 18 18 18 17 17 17 16 15 15 14 14 13 12 12 12 11 11 10 10 9 9 8 8 7 7 7 7 7 7 7 8 8 8 9 9 9 10 10 11 12 12 13 14 14 15 15 16 17 17 18 18
2 2 2 4 4 4 3 4 6 7 8 8 7 7 7 8 8 8 9 9 8 8 8 10 12 14 15 16 18 19 19 19 19 19 19 18 18 18 17 17 17 16 15 15 14 14 13 12 12 11 11 11 10 10 9 9 8 8 7 7 6 6 6 7 7 8 8 8 9 9 9 10 11 11 12 12 13 14 14 15 16 16 17 17 18 19
3 2 2 3 4 4 3 4 4 5 8 7 7 8 10 10 9 8 7 7 7 8 8 9 11 13 15 15 17 18 19 19 19 19 19 18 18 18 17 17 16 16 15 15 14 14 13 12 12 11 11 11 10 10 9 9 8 7 7 6 6 6 6 7 7 7 8 8 8 9 9 10 10 11 12 12 13 14 15 15 16 17 17 18 18 19
3 3 2 2 3 4 4 4 4 4 5 6 7 8 10 9 8 7 7 7 8 8 8 9 11 12 12 13 15 17 19 19 19 19 18 18 18 17 17 17 16 16 15 15 14 14 13 12 12 11 11 10 10 9 9 8 8 7 6 6 6 6 6 6 7 7 7 8 8 8 9 10 10 11 12 12 13 14 15 15 16 17 18 18 19 19
3 3 2 2 3 4 4 4 4 5 5 6 6 7 7 6 6 6 7 8 8 8 8 9 10 11 10 11 13 16 19 19 19 19 18 18 18 17 17 16 16 15 15 14 14 13 13 12 12 11 11 10 10 9 9 8 7 7 6 6 6 6 6 6 6 7 7 7 8 8 9 10 10 11 12 13 13 14 15 16 16 17 18 18 19 20
3 2 2 2 3 3 4 4 4 5 6 6 6 6 5 5 5 5 6 6 7 7 7 8 9 10 10 11 13 17 19 19 19 19 18 18 17 17 17 16 16 15 15 14 14 13 13 12 12 11 11 10 10 9 8 8 7 6 6 6 6 6 6 6 6 7 7 7 8 8 9 10 10 11 12 13 13 14 15 16 16 17 18 19 19 20
2 2 2 3 3 3 4 4 4 4 5 5 5 5 5 5 5 5 5 5 5 6 6 7 8 9 10 12 14 16 17 18 18 18 18 17 17 16 16 16 15 15 14 14 13 13 12 12 11 11 11 10 9 9 8 7 7 6 6 5 5 6 6 6 7 7 7 8 8 9 9 10 11 11 12 13 14 14 15 16 17 17 18 19 20 20
4 3 4 4 4 4 4 4 3 3 4 5 5 5 5 5 5 6 6 5 5 5 6 7 8 9 10 11 12 13 13 14 14 15 15 15 16 15 15 15 14 14 14 13 13 12 12 12 11 11 10 10 9 8 8 7 6 6 5 5 5 6 6 6 7 7 7 8 8 9 10 10 11 12 12 13 14 14 15 16 17 17 18 19 20 21
7 5 4 4 5 5 4 3 3 3 3 4 5 6 7 6 6 5 6 6 5 3 3 5 7 8 9 9 10 10 10 10 10 10 11 11 12 12 13 13 13 13 13 13 12 12 12 11 11 11 10 9 9 8 7 7 6 6 5 5 5 6 6 6 7 7 8 8 9 9 10 10 11 12 12 13 14 14 15 16 17 17 18 19 20 21
8 7 5 4 4 4 5 4 3 3 3 3 4 5 7 8 8 7 6 5 4 3 2 4 6 8 8 8 8 8 9 10 11 12 12 12 12 12 12 11 11 11 12 12 12 12 12 11 11 10 9 9 8 7 7 6 6 5 5 5 5 5 6 6 7 7 8 8 9 10 10 11 11 12 13 13 14 15 15 16 17 18 18 19 20 21
7 6 5 4 3 3 4 4 4 4 4 4 4 4 4 6 7 8 9 7 4 2 2 2 4 6 7 7 6 6 7 8 9 11 12 12 12 12 12 11 11 11 12 12 11 11 11 11 10 10 9 8 7 7 6 6 5 5 5 5 5 6 6 6 7 8 8 9 9 10 11 11 12 12 13 14 14 15 16 16 17 18 19 19 20 21
6 5 4 4 4 3 3 3 3 4 5 5 4 4 3 3 4 6 9 9 7 4 3 2 3 4 6 6 5 5 6 6 7 8 9 9 9 9 9 9 9 10 10 10 10 11 11 10 10 9 8 7 7 6 6 5 5 5 5 5 5 6 6 7 7 8 8 9 10 10 11 11 12 12 13 14 14 15 16 16 17 18 19 20 21 21
6 5 5 5 4 4 4 4 4 4 4 5 6 7 6 4 4 4 6 7 7 6 4 4 4 4 5 4 4 4 5 6 7 7 6 6 6 6 6 6 6 6 6 7 7 8 9 9 8 8 7 7 6 6 5 5 5 5 5 5 5 6 6 7 7 8 9 9 10 10 11 12 12 13 13 14 15 15 16 17 17 18 19 20 21 22
6 5 5 5 5 5 5 6 6 6 5 5 6 6 6 5 5 5 5 6 5 5 4 5 5 4 4 3 2 3 5 6 7 7 6 5 4 4 4 4 4 4 4 4 4 5 6 5 5 5 6 6 5 5 5 5 5 5 5 5 5 6 6 7 8 8 9 9 10 11 11 12 12 13 13 14 15 15 16 17 18 19 19 20 21 22
7 7 7 7 7 7 7 7 8 7 6 5 4 5 6 6 6 6 7 6 6 5 4 6 6 5 3 2 1 2 4 6 6 6 6 5 4 3 4 4 4 3 3 3 4 4 4 3 3 3 4 5 4 4 4 5 5 5 5 5 5 6 6 7 8 8 9 9 10 11 11 12 12 13 13 14 15 16 16 17 18 19 20 21 21 22
6 6 7 8 8 7 7 8 8 7 7 6 6 6 7 7 6 6 7 7 7 6 5 6 5 4 2 1 1 1 3 5 6 6 6 5 3 3 3 3 4 4 3 3 3 3 3 2 2 3 4 4 5 5 5 5 4 4 5 5 5 6 7 7 8 8 9 9 10 10 11 12 12 13 14 14 15 16 17 18 18 19 20 21 22 22
5 5 6 6 7 7 6 7 7 7 7 7 6 6 7 7 7 7 7 7 6 6 5 6 6 5 3 2 1 1 2 4 5 6 6 5 3 2 2 2 4 4 3 3 3 3 2 2 1 2 4 4 5 5 4 4 4 4 4 5 6 6 7 7 8 8 9 9 10 10 11 12 12 13 14 15 15 16 17 18 19 20 20 21 22 23
5 5 5 5 5 6 6 6 6 6 7 7 7 7 6 6 6 6 7 7 7 6 6 5 5 5 5 4 3 3 3 4 5 6 6 5 3 2 2 2 3 4 4 3 3 2 1 1 1 2 4 4 4 4 4 4 4 4 5 5 6 7 7 8 8 9 9 9 10 10 11 12 12 13 14 15 16 16 17 18 19 20 21 21 22 23
5 5 5 5 5 5 5 6 6 7 8 8 9 8 7 6 6 6 6 6 7 7 7 6 5 4 4 5 5 5 4 4 5 6 6 5 4 2 2 2 3 4 4 3 2 2 1 1 1 3 5 5 5 4 4 4 4 4 5 5 6 7 7 8 8 9 9 10 10 11 11 12 13 13 14 15 16 17 18 18 19 20 21 22 22 23
6 5 4 5 5 5 5 6 6 7 9 9 10 10 9 8 7 7 6 6 5 5 5 5 5 4 4 5 5 5 5 5 5 6 5 5 4 3 2 2 4 4 4 3 2 1 0 1 2 4 5 5 4 4 4 4 4 5 5 6 6 7 7 8 8 9 9 10 10 11 11 12 13 14 14 15 16 17 18 19 19 20 21 22 23 23
6 5 5 5 5 5 5 5 6 7 8 9 9 9 9 9 8 7 6 5 5 4 4 3 3 4 4 5 5 6 5 5 5 5 4 4 3 2 1 2 3 4 4 3 2 1 1 1 2 3 4 4 4 4 4 4 5 5 5 6 6 7 7 8 8 9 9 10 10 11 12 12 13 14 15 16 16 17 18 19 20 20 21 22 23 24
6 6 6 6 6 5 5 5 6 7 8 9 9 8 8 9 9 8 7 6 5 4 4 4 4 4 5 5 6 5 4 4 4 5 4 4 3 3 2 2 3 4 4 3 2 1 1 1 2 3 4 5 5 4 4 5 5 5 6 6 7 7 8 8 9 9 9 10 11 11 12 13 13 14 15 16 17 17 18 19 20 21 22 23 23 24
6 6 6 6 6 5 5 5 6 7 8 8 7 7 7 8 8 8 7 6 5 5 6 6 6 6 6 5 5 4 2 2 3 4 4 5 4 4 3 2 3 3 3 3 2 2 1 1 2 2 4 5 5 5 5 5 5 5 6 6 7 7 8 8 9 9 10 10 11 11 12 13 13 14 15 16 17 18 18 19 20 21 22 23 24 24
5 6 6 6 6 5 5 6 6 6 6 5 5 4 4 5 5 6 6 6 6 7 6 7 7 6 5 5 4 3 2 2 2 2 3 4 4 4 3 3 3 3 3 3 2 2 2 2 2 2 2 4 5 5 5 5 5 5 6 6 7 7 8 9 9 9 10 10 11 11 12 13 14 14 15 16 17 18 18 19 20 21 22 23 24 24
6 6 6 6 7 7 7 7 8 8 7 6 5 5 6 7 8 8 8 7 7 7 7 7 7 6 4 4 3 2 1 1 1 1 3 3 4 4 4 3 3 3 3 3 2 2 2 2 1 1 1 2 3 4 4 5 5 5 6 6 7 8 8 9 9 10 10 11 11 12 12 13 14 14 15 16 17 18 18 19 20 21 23 23 23 23
7 8 8 9 11 12 12 12 12 12 10 8 7 7 8 9 9 9 8 7 7 7 7 7 6 5 4 4 4 3 2 1 0 1 2 3 4 4 4 3 3 3 4 3 3 2 2 2 2 1 1 1 2 3 4 4 5 5 6 6 7 8 8 9 9 10 10 11 11 12 12 13 14 14 15 16 17 17 18 19 20 22 22 22 22 21
11 12 13 14 15 16 17 17 17 16 15 13 12 11 10 9 9 9 8 7 7 7 7 7 6 5 5 4 4 4 4 3 2 1 2 3 4 4 4 3 3 3 4 3 3 2 2 1 1 1 1 1 1 1 2 3 4 5 5 6 7 7 8 9 10 10 10 11 11 12 12 13 14 14 15 16 16 17 18 19 20 21 21 20 18 16
12 13 14 16 17 18 18 19 19 18 18 18 18 16 12 10 9 9 8 8 7 7 7 7 7 6 5 5 5 5 5 4 3 2 2 3 4 4 4 4 4 3 4 3 2 2 1 1 1 1 1 1 1 0 1 2 3 4 4 5 6 7 8 9 10 10 10 11 11 12 12 13 13 14 15 15 16 17 18 19 20 19 18 15 12 11
11 12 14 15 16 17 18 18 19 19 20 21 20 17 12 8 8 8 9 8 7 7 6 6 6 6 5 5 5 4 4 4 4 3 3 3 4 4 4 4 4 3 3 3 2 2 1 1 1 1 1 1 1 1 1 1 2 3 3 4 5 6 7 9 9 10 10 11 11 11 12 12 13 13 14 15 15 16 17 18 18 17 14 12 10 10
9 10 11 12 14 14 14 14 15 17 20 21 19 15 9 6 5 6 8 8 8 8 7 7 7 6 6 6 5 4 4 5 5 5 4 4 4 4 5 4 4 4 4 3 2 2 1 2 2 2 1 1 1 1 1 1 2 2 3 3 4 5 7 8 9 10 10 10 11 11 12 12 12 13 13 14 15 16 17 18 17 14 10 10 9 9
8 9 9 9 10 10 9 9 10 12 15 16 15 11 6 3 3 5 7 8 8 8 7 7 7 7 7 6 5 4 4 6 7 7 6 4 4 5 6 5 5 4 3 2 2 2 2 2 2 2 2 2 1 1 1 1 2 2 2 3 3 4 6 8 8 9 9 9 10 10 11 11 12 12 13 13 14 15 16 17 15 13 10 9 9 10
7 7 7 7 7 7 7 7 7 8 9 10 9 6 4 3 3 4 5 6 7 7 7 7 8 8 8 6 5 5 4 6 8 9 7 4 4 4 5 5 4 3 2 1 1 1 2 2 2 2 2 2 1 1 1 1 1 2 2 3 3 3 6 6 7 7 7 8 9 10 10 10 11 11 12 13 14 15 15 16 15 13 10 9 9 10
6 5 6 6 6 6 6 6 6 6 6 6 5 4 3 3 4 4 4 4 4 4 5 6 7 8 7 6 4 3 3 5 8 11 9 5 4 4 4 5 4 4 2 0 1 1 1 2 2 2 2 2 1 1 1 1 1 2 2 2 3 3 5 5 5 6 6 7 7 8 9 9 10 11 11 12 13 14 15 16 15 13 11 9 9 10
6 6 6 6 6 6 6 6 6 5 5 4 4 4 4 4 4 4 3 2 1 1 2 4 6 7 7 6 4 3 3 5 8 11 9 6 4 4 5 5 5 5 4 2 1 1 1 1 2 2 2 2 2 1 1 0 1 2 2 2 2 3 4 4 4 5 5 5 5 6 6 7 8 9 10 11 12 13 14 15 15 14 12 10 9 9
6 6 6 6 6 6 6 6 6 5 4 4 4 4 4 4 4 4 4 3 3 3 3 2 2 3 5 5 5 4 4 5 8 10 8 6 4 4 5 5 5 5 4 3 3 2 1 2 3 3 3 2 2 1 1 0 1 1 1 2 2 2 3 3 4 4 5 5 5 5 5 6 6 7 8 10 11 13 14 15 14 14 13 12 10 9
6 6 5 5 6 6 6 6 6 5 5 4 4 4 4 4 4 5 5 5 5 5 6 5 5 4 2 3 4 6 6 7 8 9 8 6 5 5 4 4 5 5 5 4 3 3 3 3 3 3 3 3 2 2 1 0 0 1 1 1 2 2 3 3 4 4 4 5 5 5 5 5 6 6 7 10 12 13 14 14 13 13 13 12 11 10
6 6 5 5 5 6 6 6 5 5 5 4 4 4 4 5 5 5 5 6 6 6 7 7 7 7 7 5 5 6 7 7 8 8 7 6 5 4 4 4 5 5 4 4 4 4 3 3 3 3 3 2 2 2 2 1 0 0 1 1 2 2 2 3 3 4 4 4 5 5 5 6 6 6 7 10 11 11 12 12 12 12 13 12 12 11
6 6 5 5 4 5 5 5 5 5 5 5 5 5 5 6 6 6 6 7 7 7 7 7 8 9 12 11 10 9 8 8 8 8 7 6 4 4 4 4 5 4 3 3 3 4 4 4 4 3 2 2 2 2 2 1 0 0 0 1 1 2 2 3 3 4 4 4 5 5 6 6 6 6 7 8 8 8 8 8 9 10 12 11 11 10
6 6 5 5 4 4 4 5 5 5 5 5 5 6 6 7 7 7 7 7 8 8 9 8 8 9 11 12 12 12 10 9 9 8 7 6 4 4 5 5 5 4 3 2 2 3 3 3 3 3 3 3 3 2 2 1 0 0 1 1 1 1 2 3 3 4 4 4 5 5 5 6 6 6 6 6 6 7 7 7 8 9 10 9 9 10
7 6 6 5 5 4 4 5 5 5 6 6 7 7 7 7 7 7 7 7 8 8 9 10 9 9 10 10 10 10 9 8 7 6 6 5 4 4 4 5 5 4 3 1 1 2 2 2 3 3 4 3 3 3 2 2 1 0 1 0 0 1 2 3 3 3 4 4 4 5 5 5 6 6 6 6 6 6 6 6 7 8 9 8 8 8
7 6 5 5 5 5 5 5 5 6 6 7 7 7 6 6 6 6 6 7 7 7 8 9 9 9 9 9 9 9 8 7 7 6 5 5 5 5 4 5 5 4 4 2 1 0 1 2 3 4 4 4 4 4 3 2 2 1 1 1 1 1 2 2 3 3 4 4 4 5 5 6 6 6 6 6 6 5 5 6 7 7 7 7 7 7
7 7 6 5 5 5 5 6 6 6 7 6 6 6 6 6 6 6 6 7 6 6 6 7 8 9 9 8 8 7 7 7 7 7 6 6 6 6 5 5 4 4 3 3 2 2 2 3 4 4 4 4 4 4 3 3 2 2 2 2 2 1 1 2 3 3 4 4 4 5 6 6 6 6 6 6 6 5 5 6 6 7 7 6 6 6
7 6 6 6 6 6 7 7 7 6 6 6 5 5 5 5 6 6 7 7 7 6 6 6 7 8 8 8 7 6 6 6 7 7 7 7 7 7 6 5 4 4 3 3 3 3 3 4 4 4 3 3 4 4 4 3 2 2 2 2 2 2 1 2 3 3 4 4 4 5 5 5 5 6 6 6 5 5 5 5 6 6 6 6 6 6
7 6 6 6 6 6 7 6 6 6 6 6 6 6 5 5 6 7 7 6 7 7 6 6 7 8 8 8 7 6 6 6 6 7 7 7 7 6 6 5 4 3 3 3 3 3 4 4 4 4 3 3 4 4 4 3 3 2 3 3 3 3 2 2 3 4 4 4 4 5 5 6 6 6 6 5 5 5 5 5 5 5 6 6 6 6
7 7 7 6 6 6 6 6 6 6 6 6 6 6 6 6 6 6 6 7 7 7 7 7 7 7 7 7 7 6 6 5 5 5 6 8 8 8 6 5 4 3 3 3 3 4 4 4 4 4 3 4 4 4 4 3 3 3 3 3 3 2 2 2 3 3 4 4 5 5 6 6 6 6 5 5 5 4 4 5 5 5 6 6 6 7
7 7 7 6 6 7 7 7 6 6 6 6 6 6 5 6 6 6 7 7 7 7 6 6 7 7 7 7 7 6 6 5 5 5 5 5 6 6 6 5 4 4 4 4 4 4 5 4 4 4 4 4 4 4 4 4 3 3 2 2 2 2 1 2 2 3 4 4 5 5 6 7 6 5 5 5 5 5 4 4 5 6 6 7 7 7
7 7 7 7 6 6 7 6 6 6 6 6 6 6 5 5 6 6 6 7 7 7 7 6 7 8 8 8 7 7 7 7 6 5 5 5 5 6 5 5 5 5 5 5 5 5 5 4 4 3 4 4 4 4 4 4 3 3 3 2 2 2 2 2 3 3 3 4 4 5 6 6 6 5 5 5 5 4 4 4 5 6 6 7 7 7
8 8 8 7 7 7 7 7 6 6 7 7 6 6 6 6 7 7 7 7 7 7 7 7 7 8 8 7 7 7 8 8 7 7 6 6 6 6 6 6 6 6 6 6 6 6 5 4 4 4 3 4 4 4 4 3 3 3 2 2 2 2 2 3 3 3 3 3 4 5 5 5 5 5 5 5 5 4 4 5 5 6 6 6 7 7
8 8 8 7 7 7 7 7 7 7 7 7 7 6 6 7 8 8 7 7 7 7 7 8 9 9 8 8 7 8 8 8 7 7 6 6 6 6 6 6 6 6 6 6 6 6 5 6 6 7 6 5 5 4 4 3 3 2 2 2 2 2 3 3 3 3 3 3 4 4 4 3 3 4 5 5 5 5 5 5 6 6 6 7 7 7
8 8 8 8 7 7 7 7 7 7 7 8 8 7 7 7 7 7 6 6 6 7 7 8 9 9 9 9 8 8 8 8 7 7 6 6 6 7 7 7 7 6 6 5 5 5 5 6 7 8 9 8 7 5 3 3 2 2 2 3 3 3 3 3 3 3 3 3 3 3 4 3 3 3 4 5 5 6 6 6 6 6 7 7 7 7
8 8 8 7 7 7 7 7 7 7 8 8 8 8 7 7 7 6 6 6 7 7 7 7 8 9 9 9 9 8 8 8 8 8 7 7 7 7 7 7 7 6 6 5 5 4 4 4 4 5 7 9 9 8 4 3 2 2 3 3 3 2 2 3 3 3 3 3 3 3 3 3 3 3 4 4 5 5 6 6 7 7 7 7 7 8
Wind_Direction
85 82 64 85 93 103 114 127 127 123 120 121 125 128 128 122 119 120 123 126 129 132 134 132 131 130 129 129 129 130 130 130 130 129 128 127 126 125 124 123 123 122 122 122 123 123 123 122 121 119 115 112 108 104 99 95 89 82 73 64 53 43 33 26 21 17 14 10 6 2 357 353 349 346 343 341 339 338 336 335 333 332 330 330 329 329
94 83 59 75 86 99 107 121 125 126 128 130 133 135 133 126 121 118 119 122 125 129 132 132 131 130 129 129 130 131 131 130 129 128 126 125 124 124 123 122 122 122 122 122 122 122 121 119 118 115 113 110 107 104 100 95 89 83 75 65 55 45 36 28 22 18 14 11 6 1 357 353 349 345 343 340 339 338 336 335 333 332 330 330 329 328
114 93 66 69 78 90 103 113 117 121 126 130 134 135 131 125 121 118 119 121 125 128 132 132 130 128 128 129 130 131 130 128 127 126 124 124 123 123 122 122 122 122 123 123 122 122 120 118 117 115 112 110 108 105 101 96 91 84 75 66 56 47 38 31 25 20 15 10 5 0 356 351 347 344 342 340 339 337 337 335 333 332 330 330 329 328
111 99 85 77 74 76 86 96 101 104 108 113 119 122 122 119 117 117 120 123 125 128 130 130 128 128 127 128 129 129 128 126 125 124 123 123 122 122 122 123 123 124 124 124 123 122 121 119 118 116 114 112 110 106 102 97 91 83 75 65 55 45 38 32 26 20 15 9 4 359 354 350 346 343 341 340 339 338 337 335 333 332 330 329 328 327
90 84 82 87 83 79 77 83 86 89 89 91 95 99 102 103 106 110 113 118 122 126 129 129 129 128 127 128 128 127 126 124 123 122 122 122 122 123 123 124 124 125 125 124 124 123 122 121 120 118 116 113 110 106 101 96 89 82 73 63 53 43 36 30 24 18 13 8 2 357 353 349 346 343 342 341 339 338 337 335 333 331 330 328 327 326
69 59 64 81 90 90 86 83 85 87 87 83 82 81 80 84 90 97 102 109 115 122 127 129 128 126 124 125 125 125 123 122 121 121 121 122 123 123 124 125 125 126 125 125 125 124 123 122 121 119 116 113 110 105 100 94 88 80 71 61 51 41 33 27 21 15 10 5 360 356 352 348 346 344 342 341 340 338 336 334 333 331 329 328 327 326
79 64 68 78 83 89 89 87 91 96 102 100 93 85 78 76 76 80 86 95 107 117 125 124 121 120 119 121 122 122 121 120 119 120 120 121 122 123 124 125 125 126 125 125 125 124 123 122 120 117 115 111 107 103 98 93 86 79 70 59 49 39 31 24 18 12 7 2 358 354 351 348 346 344 343 341 339 338 336 334 332 330 329 327 326 325
109 99 92 95 96 94 89 87 91 103 115 120 116 108 96 83 75 73 73 76 88 107 122 120 118 116 117 120 121 121 120 119 119 119 121 121 122 123 124 124 125 125 124 124 124 123 121 120 118 115 112 109 106 102 97 92 86 78 69 58 47 37 29 21 15 9 4 360 356 353 350 348 346 344 342 340 339 337 335 333 331 330 328 327 325 325
122 118 109 115 117 116 109 99 97 103 117 125 127 125 119 110 99 84 72 65 64 76 111 119 119 118 118 121 122 123 123 123 123 124 125 124 124 123 124 123 123 123 123 122 121 120 119 117 115 112 109 106 103 100 96 91 84 76 67 56 45 35 26 19 12 7 2 358 355 352 350 348 346 344 342 340 338 336 334 333 331 329 327 326 325 324
122 121 117 117 119 122 124 122 121 119 119 118 121 124 126 125 121 112 94 77 60 49 68 113 120 120 119 119 119 119 119 119 120 121 122 119 121 123 122 120 120 120 119 118 117 116 115 113 111 109 106 104 101 98 94 88 81 73 63 52 41 31 23 16 9 4 360 356 353 351 349 348 346 344 342 339 337 335 333 332 330 328 327 325 324 324
120 119 115 111 106 105 114 123 126 127 121 110 102 100 108 125 128 126 120 111 100 79 66 99 112 116 119 117 115 113 112 110 109 108 109 109 112 115 115 114 114 114 113 113 112 111 110 109 108 106 104 102 99 96 92 85 77 68 57 46 36 27 19 12 6 2 358 355 352 350 349 347 345 343 341 339 336 334 333 331 329 328 326 325 324 323
126 124 119 118 115 111 111 115 118 122 126 122 118 114 113 124 129 128 128 129 129 129 122 101 92 96 106 114 117 118 114 109 104 100 98 99 102 105 107 107 107 107 107 106 105 105 106 106 106 105 103 101 97 93 88 80 72 62 51 41 31 23 16 10 4 0 357 354 351 350 348 347 345 343 340 338 335 333 332 330 328 327 326 325 324 323
129 129 127 128 129 131 132 132 134 140 149 150 149 148 146 143 131 122 121 125 130 134 133 112 90 76 75 90 111 125 124 116 108 101 94 92 93 97 103 101 101 102 105 105 104 104 105 105 105 104 103 101 98 93 85 77 67 56 45 36 27 19 13 7 3 359 355 353 351 349 348 346 344 341 339 337 334 332 330 329 328 327 325 324 323 323
134 133 133 137 141 146 149 151 154 158 165 164 156 147 140 135 127 119 113 115 120 125 122 109 98 84 67 62 86 121 129 120 111 102 93 87 85 90 100 100 97 97 100 104 105 105 106 107 107 106 105 104 99 94 87 76 64 52 42 32 23 16 11 6 1 358 355 352 350 349 347 345 343 340 337 335 333 331 330 328 327 326 325 324 323 323
145 145 147 151 154 157 160 161 162 162 162 154 140 126 119 123 127 127 124 124 126 124 113 102 96 90 76 58 61 110 129 120 115 107 100 90 80 79 93 103 102 98 95 100 102 103 101 100 104 107 106 97 88 81 76 68 56 44 38 28 20 13 8 4 360 357 354 352 350 348 346 343 341 338 336 334 332 330 329 328 327 326 325 324 323 323
152 154 157 159 160 162 165 165 162 158 152 142 135 132 133 138 140 139 134 135 136 133 126 117 110 101 88 64 28 109 135 123 119 114 110 101 84 71 76 107 111 108 103 102 103 103 99 92 93 97 97 88 79 72 65 59 50 40 32 23 16 10 6 2 359 356 353 351 349 347 344 342 339 337 335 333 331 330 329 328 327 326 325 324 323 323
154 159 162 160 161 163 165 164 161 155 147 141 141 144 147 148 146 143 140 141 142 142 144 140 138 137 137 153 202 209 159 131 122 117 112 107 94 72 57 108 119 118 113 103 96 92 89 84 99 109 100 92 85 77 66 57 46 35 26 18 13 8 4 0 357 355 352 350 348 346 343 341 338 336 334 332 331 330 329 328 327 326 325 324 323 323
156 162 162 161 162 163 164 162 158 152 145 143 143 144 144 142 141 142 145 147 150 153 156 156 154 152 149 160 177 186 177 140 126 120 115 111 105 92 70 103 116 118 115 107 99 83 64 29 74 101 97 88 82 75 64 53 40 29 21 15 10 6 2 359 356 354 352 350 347 344 342 339 337 335 333 332 331 330 329 328 327 326 325 324 323 323
159 162 161 163 163 164 166 166 162 158 154 152 149 145 141 141 143 146 152 156 159 160 159 160 157 153 148 152 157 162 166 142 128 121 119 116 114 113 110 117 119 119 116 110 100 84 54 35 74 85 89 84 78 70 59 46 34 24 17 12 8 5 1 358 356 354 351 348 346 343 340 338 336 335 333 333 332 331 330 329 327 326 325 324 324 323
159 163 164 160 159 162 171 174 170 165 162 156 151 146 145 146 149 153 158 160 162 162 158 152 145 138 130 128 134 143 155 139 125 118 117 117 119 126 128 132 128 124 120 114 106 92 79 109 104 99 94 87 77 65 53 40 30 21 15 11 7 4 1 358 356 353 350 347 344 341 339 337 335 334 334 333 332 331 330 329 327 326 325 325 324 323
160 167 169 160 159 165 174 175 171 165 161 153 148 145 146 147 151 156 160 157 156 153 144 126 115 112 113 121 131 142 154 142 132 124 117 115 119 128 135 137 134 131 127 126 126 124 119 107 101 97 95 85 74 62 49 37 28 20 15 10 7 4 1 359 356 353 349 346 343 340 338 336 335 335 334 334 333 332 330 329 328 327 326 325 324 323
163 167 164 161 163 167 169 161 159 158 157 154 153 151 151 152 154 157 158 155 150 139 118 100 90 90 98 113 124 134 144 139 135 130 120 122 131 144 154 153 142 137 135 135 133 127 110 95 88 82 78 73 67 59 47 35 27 20 15 10 7 4 2 360 356 352 348 344 341 339 337 336 336 335 335 334 333 332 330 329 328 327 326 325 324 323
161 160 156 158 160 160 154 148 148 152 156 159 158 156 153 152 153 153 151 146 132 116 101 93 86 81 83 94 102 103 92 96 113 121 119 131 142 151 159 162 154 145 140 138 139 142 141 111 89 76 70 60 55 50 42 32 25 19 14 10 7 5 3 360 356 351 347 344 341 339 337 336 336 336 335 334 333 332 330 329 329 328 327 325 323 321
155 152 151 154 154 150 144 144 147 150 153 153 146 136 127 122 120 118 114 109 105 103 102 98 92 86 84 92 94 89 67 53 76 110 119 131 139 146 156 162 158 148 140 139 145 154 154 132 112 89 72 52 45 40 34 28 22 17 13 10 8 5 3 360 355 351 347 343 341 339 338 337 337 336 336 335 333 332 331 330 330 328 327 325 322 319
153 152 153 153 152 150 148 149 150 150 147 138 125 110 101 96 93 91 89 93 99 105 109 106 104 105 112 119 123 125 118 58 63 110 122 124 129 138 153 161 157 146 139 143 153 164 167 153 140 118 89 56 44 35 29 22 18 14 11 9 7 5 3 358 354 350 346 343 341 339 338 338 338 337 336 335 334 333 332 332 331 329 327 324 321 317
156 155 156 155 154 153 151 151 151 148 141 132 124 118 113 108 104 102 102 108 117 122 122 119 120 126 133 140 148 156 160 156 151 132 126 123 128 137 153 160 154 144 138 146 158 172 178 166 155 141 119 81 50 36 24 17 12 10 8 7 5 4 1 356 352 348 345 342 341 340 340 339 339 338 337 336 335 334 334 333 332 330 327 324 320 316
154 155 156 156 156 155 155 154 152 147 139 134 131 130 128 123 120 120 126 137 142 141 136 134 133 135 139 148 159 164 163 165 172 170 144 126 128 136 152 156 151 142 136 142 154 168 172 166 154 145 138 143 118 53 21 10 5 3 3 3 2 0 357 353 349 346 343 342 341 341 341 341 340 339 338 337 336 336 335 334 333 330 328 324 320 316
151 154 156 158 158 158 157 157 154 149 142 138 138 138 136 134 135 140 151 154 153 149 145 143 142 143 148 158 162 162 163 168 173 174 162 129 126 133 147 151 149 143 135 134 139 148 157 160 157 155 160 176 182 163 10 353 351 352 355 355 355 354 353 349 346 343 342 342 342 342 343 342 342 341 340 339 338 337 337 336 334 331 328 324 320 316
144 148 152 155 156 157 158 157 155 152 147 145 145 147 148 146 148 152 156 154 153 152 152 149 147 147 148 148 147 152 168 178 178 172 165 135 127 130 140 147 150 146 136 130 131 142 167 172 172 174 181 194 208 233 273 310 326 335 340 343 345 346 347 345 343 341 341 341 343 344 344 344 343 342 341 340 339 338 338 337 335 333 328 325 321 319
139 141 144 148 151 153 155 155 154 153 151 151 152 154 157 154 152 150 149 152 155 157 156 152 149 146 142 137 138 153 184 186 178 169 165 148 136 134 141 150 156 157 149 139 138 147 174 176 175 178 188 204 222 245 271 295 312 323 327 331 335 338 341 340 339 338 339 341 343 344 344 344 343 342 341 340 339 339 338 338 337 334 329 325 323 321
142 141 141 143 145 146 148 148 149 151 152 154 155 157 156 145 138 141 147 157 161 161 158 155 153 152 151 147 154 170 188 179 171 167 170 155 141 138 147 153 158 162 163 154 149 151 159 166 171 175 187 200 212 240 275 301 318 327 329 327 328 333 337 336 335 336 339 341 343 344 344 342 342 341 341 340 339 338 337 338 337 335 330 327 325 324
138 137 137 137 137 138 138 140 143 147 151 155 157 156 143 128 130 142 155 164 166 165 160 157 157 159 164 168 172 173 168 158 160 164 167 151 134 134 148 149 151 156 166 181 174 151 146 152 160 167 179 189 198 217 264 304 324 333 333 328 327 330 332 332 333 335 338 341 342 342 341 340 339 339 339 339 338 337 336 336 336 335 332 329 327 326
123 123 126 128 129 131 133 136 139 143 148 151 151 145 130 125 131 142 156 166 170 168 163 159 160 162 169 173 167 144 115 135 151 158 160 143 129 131 146 145 146 147 148 155 346 8 95 131 142 151 166 177 187 201 228 306 330 334 332 329 327 327 328 330 332 336 338 339 339 339 338 337 337 337 337 336 335 334 333 333 333 333 332 330 328 326
116 118 121 123 125 127 129 132 133 135 136 135 132 128 123 121 122 125 126 124 122 135 149 157 161 164 167 163 145 111 97 128 146 152 152 138 129 134 142 145 147 149 150 150 127 78 77 122 134 141 149 165 177 183 182 328 334 328 324 323 324 326 328 331 333 336 338 339 337 336 337 336 335 335 335 334 332 330 329 328 329 329 330 330 329 327
119 121 124 126 128 128 128 129 128 125 120 115 111 110 110 110 106 99 89 74 60 50 46 63 116 150 160 153 143 131 127 137 146 148 142 135 130 132 138 146 151 153 154 155 150 139 132 146 147 146 146 157 164 163 141 65 323 310 307 315 322 328 331 334 336 338 340 341 340 339 338 336 335 334 332 329 327 325 323 324 325 327 329 329 329 327
127 129 132 133 134 134 134 132 129 123 115 107 101 97 96 96 94 89 83 76 70 66 60 53 49 50 66 108 126 132 136 140 144 144 138 134 130 130 134 147 154 156 155 156 154 150 146 148 150 151 151 152 150 143 126 112 285 288 301 319 326 331 335 339 341 342 344 344 343 341 338 335 333 329 325 323 320 319 319 320 323 326 329 329 329 329
136 138 140 140 139 138 137 135 130 125 119 112 104 97 92 91 89 86 83 80 77 75 72 65 60 54 53 66 87 108 123 132 137 138 136 131 127 127 130 142 153 157 155 154 153 151 149 146 148 152 153 145 134 123 114 109 116 284 333 329 327 330 337 345 349 349 347 345 342 338 335 332 329 325 321 319 318 318 318 321 325 329 331 331 331 331
141 143 145 144 142 139 137 134 130 126 121 116 109 102 96 92 90 88 85 82 80 78 77 72 67 65 64 71 80 91 106 116 123 127 128 125 123 122 127 134 144 151 149 150 154 156 156 153 152 151 145 125 108 100 98 89 75 346 323 303 310 326 347 353 355 354 350 344 339 335 333 331 328 325 322 321 321 323 324 328 331 333 334 334 335 336
147 148 148 147 143 139 137 133 129 123 117 112 109 104 101 96 91 88 86 83 81 79 79 79 77 73 71 75 80 86 93 102 110 115 117 115 116 119 125 130 135 137 133 147 170 177 173 163 156 150 142 128 115 107 106 112 118 222 250 258 294 352 9 2 359 356 350 344 339 336 334 333 330 327 324 323 325 328 331 331 334 336 337 337 337 338
150 148 146 143 137 130 127 124 121 119 115 113 111 109 106 101 94 89 84 84 83 83 82 82 80 77 72 72 73 76 80 87 94 100 103 105 109 113 119 122 125 126 124 142 214 216 188 157 140 132 129 124 123 123 126 125 117 99 278 273 349 20 13 3 359 355 348 344 341 338 336 333 330 327 324 323 325 328 330 330 332 335 338 339 339 338
148 143 139 131 120 112 108 111 114 117 120 119 117 115 112 109 106 102 97 93 91 90 90 88 84 80 74 69 67 66 67 72 78 83 87 92 96 100 104 110 116 121 126 136 151 148 112 116 115 113 112 114 116 117 116 107 89 53 359 6 15 12 2 360 359 355 348 344 342 340 336 332 329 326 322 320 319 319 321 322 326 330 334 338 340 340
142 138 133 126 119 114 114 115 117 118 120 119 119 119 121 122 122 121 117 110 106 105 105 103 99 95 88 81 73 66 61 62 66 71 77 83 88 94 99 106 113 122 130 131 120 101 89 98 104 109 111 115 116 114 108 99 87 61 32 20 6 351 342 9 7 1 350 347 345 342 339 334 329 324 319 315 312 311 312 316 322 327 331 336 340 342
133 128 125 123 122 123 124 122 122 122 122 119 119 121 126 128 128 125 121 118 118 119 118 114 111 107 103 97 90 79 67 63 64 68 73 79 87 95 104 111 119 128 136 128 117 105 93 87 86 88 93 104 110 110 110 105 92 72 51 28 11 3 19 17 7 357 350 348 346 345 342 334 326 317 310 305 303 305 311 315 321 327 335 339 342 343
121 118 119 121 123 124 124 125 127 128 126 123 123 124 127 130 128 124 120 119 120 120 118 115 111 107 104 103 102 97 88 77 71 70 72 77 81 88 97 109 119 128 132 126 123 118 108 93 83 75 71 82 92 99 104 102 93 75 55 36 26 24 26 7 353 348 347 347 347 346 342 331 320 311 304 303 306 311 317 323 330 337 345 347 347 347
117 119 123 126 128 129 130 131 130 129 125 124 125 126 129 130 128 125 123 122 122 122 124 124 119 113 108 109 110 110 106 96 86 78 75 76 77 80 82 88 96 102 106 107 114 117 116 108 101 93 87 86 88 91 94 93 88 77 60 40 31 28 25 2 352 350 348 347 346 344 338 327 318 313 313 317 319 321 323 331 339 346 351 352 352 351
119 124 130 132 134 135 135 133 130 126 122 122 122 124 127 127 126 125 125 125 126 127 131 129 124 121 121 123 122 119 115 109 101 95 89 84 80 76 72 69 69 71 79 83 86 91 97 103 108 107 102 94 89 85 83 82 79 73 60 38 24 16 11 6 4 1 354 348 344 340 333 326 322 323 329 327 323 321 325 338 348 354 355 355 354 353
129 132 135 136 135 133 132 130 128 126 124 124 124 125 126 126 126 125 125 127 128 129 128 121 116 116 120 124 125 124 122 118 115 112 109 102 96 90 83 77 73 73 76 80 82 84 85 88 93 99 104 100 94 88 80 74 69 62 50 28 13 6 7 11 8 3 354 350 344 338 331 329 333 337 336 328 322 322 333 347 357 1 360 357 354 353
136 137 138 137 135 133 131 132 131 130 128 127 125 126 128 131 132 131 129 132 131 129 126 120 115 113 114 116 120 122 123 122 121 119 117 113 109 105 101 97 92 88 87 88 89 88 84 73 63 61 72 87 94 94 89 78 68 58 45 25 10 2 1 5 2 356 347 346 341 334 328 333 339 340 333 329 328 332 342 354 2 5 4 359 355 353
135 137 138 138 137 136 137 136 134 132 131 130 129 128 132 134 134 134 133 134 132 129 126 124 121 119 117 118 119 119 118 118 118 119 120 120 119 117 115 114 111 109 106 103 102 99 93 79 66 57 53 62 75 87 90 81 72 63 52 34 17 2 352 353 352 347 339 335 332 327 320 326 332 333 327 330 333 338 344 354 1 4 3 359 356 354
133 136 138 138 138 138 138 138 137 136 135 134 134 134 135 135 135 135 133 131 128 126 124 124 124 122 121 122 122 122 121 121 121 122 124 126 127 127 128 130 130 128 124 120 117 112 104 89 74 61 51 48 49 57 77 80 79 73 64 45 26 6 347 342 340 335 326 322 322 324 321 326 334 337 334 333 336 339 345 352 357 359 358 355 353 353
135 136 137 137 137 137 137 138 139 140 140 139 138 137 137 136 137 136 133 129 125 122 120 120 120 121 122 123 123 124 126 126 126 127 131 133 135 137 140 144 145 142 137 132 129 125 117 105 90 72 55 44 37 32 36 39 50 62 65 48 30 9 345 334 326 317 308 305 313 325 335 344 352 356 351 344 342 344 349 350 351 351 350 349 350 350